Terug naar catalogus

ARIANE 1 DEB

LostGTO
NORAD 28557·DEBRIS·🇫🇷 France

Gelanceerd Dec 24, 1979 vanaf Guiana Space Centre

Loading…

TLE

VerouderdSource: Space-Track

Epoch: Feb 23, 2026, 08:40 UTC

1 28557U 79104W   26054.36139245 -.00000066  00000-0 -17269-2 0  9999
2 28557  19.8194  34.9289 7391855 172.1495 357.5462  1.97528548 29410

Volg ARIANE 1 DEB in realtime met AllMySat

Download on the App Store